Weather History for Ellensburg, WA

Change the Weather History Date:

Friday, August 22, 2014

  Actual Average (KYKM) Record (KYKM)
Temperature  
Mean Temperature 68 °F 68 °F  
Max Temperature 82 °F 86 °F 99 °F (1961)
Min Temperature 55 °F 51 °F 35 °F (1960)
Degree Days  
Heating Degree Days 0 1  
Month to date heating degree days 15  
Since 1 June heating degree days 134  
Since 1 July heating degree days 36  
Cooling Degree Days 4 4  
Month to date cooling degree days 130  
Year to date cooling degree days 410  
Since 1 June cooling degree days 390  
Growing Degree Days 18 (Base 50)    
Moisture  
Dew Point 48 °F    
Average Humidity 51    
Maximum Humidity 67    
Minimum Humidity 28    
Precipitation  
Precipitation 0.02 in 0.01 in 0.51 in (2004)
Month to date precipitation 0.17  
Year to date precipitation 4.68  
Snow  
Snow 0.00 in 0.00 in 0.00 in (2002)
Month to date snowfall 0.0  
Year to date snowfall 8.6  
Since 1 July snowfall 0.0  
Snow Depth -    
Sea Level Pressure  
Sea Level Pressure 29.98 in    
Wind  
Wind Speed 11 mph (NW)    
Max Wind Speed 18 mph    
Max Gust Speed 24 mph    
Visibility 10 miles    
Events Rain , Thunderstorm    
T = Trace of Precipitation, MM = Missing Value Source: NWS Daily Summary

Daily Weather History Graph

Daily Weather History Graph

Search for Another Location

Airport:

Trip Planner

Search our weather history database for the weather conditions in past years. The results will help you decide how hot, cold, wet, or windy it might be!

Date:

Astronomy

Aug. 22, 2014 Rise Set
Actual Time 6:08 AM PDT 8:00 PM PDT
Civil Twilight 5:35 AM PDT 8:32 PM PDT
Nautical Twilight 4:55 AM PDT 9:12 PM PDT
Astronomical Twilight 4:11 AM PDT 9:56 PM PDT
Moon 3:31 AM PDT (8/22) 6:15 PM PDT (8/22)
Length of Visible Light 14h 56m
Length of Day
13h 51m
Waning Crescent, 7% of the Moon is Illuminated
Aug 22
Waning Crescent
Aug 25
New
Sep 2
First Quarter
Sep 8
Full
Sep 15
Last Quarter

Hourly Weather History & Observations

Time (PDT) Temp. Dew Point Humidity Pressure Visibility Wind Dir Wind Speed Gust Speed Precip Events Conditions
12:53 AM 63.0 °F 45.0 °F 52% 29.91 in 10.0 mi NW 13.8 mph - N/A   Clear
2:53 AM 61.0 °F 46.0 °F 58% 29.91 in 10.0 mi NW 15.0 mph - N/A   Scattered Clouds
3:53 AM 59.0 °F 45.0 °F 60% 29.91 in 10.0 mi NW 15.0 mph - N/A   Scattered Clouds
4:53 AM 59.0 °F 44.1 °F 58% 29.93 in 10.0 mi NNW 16.1 mph - N/A   Mostly Cloudy
5:53 AM 55.9 °F 42.1 °F 60% 29.95 in 10.0 mi Variable 3.5 mph - N/A   Mostly Cloudy
6:53 AM 55.0 °F 44.1 °F 67% 29.97 in 10.0 mi NNE 3.5 mph - N/A   Partly Cloudy
8:53 AM 66.0 °F 46.0 °F 48% 29.98 in 10.0 mi NW 13.8 mph - N/A   Mostly Cloudy
9:53 AM 70.0 °F 46.0 °F 42% 29.97 in 10.0 mi WNW 8.1 mph - N/A   Partly Cloudy
10:53 AM 73.9 °F 46.0 °F 37% 29.97 in 10.0 mi Calm Calm - N/A   Partly Cloudy
11:53 AM 77.0 °F 46.0 °F 33% 29.96 in 10.0 mi South 5.8 mph - N/A   Clear
12:53 PM 78.1 °F 46.0 °F 32% 29.96 in 10.0 mi East 5.8 mph - N/A   Mostly Cloudy
2:53 PM 82.0 °F 46.0 °F 28% 29.94 in 10.0 mi SE 6.9 mph - N/A   Partly Cloudy
3:53 PM 78.1 °F 46.0 °F 32% 29.95 in 10.0 mi NW 3.5 mph - N/A   Mostly Cloudy
4:48 PM 69.8 °F 48.2 °F 46% 29.98 in 8.0 mi South 5.8 mph - 0.02 in Rain , Thunderstorm Light Rain
4:53 PM 72.0 °F 50.0 °F 46% 29.97 in 10.0 mi SW 5.8 mph - 0.02 in Thunderstorm Thunderstorm
5:25 PM 66.9 °F 50.0 °F 54% 30.01 in 10.0 mi WNW 18.4 mph 24.2 mph 0.00 in Thunderstorm Scattered Clouds
5:35 PM 68.0 °F 52.0 °F 56% 30.01 in 10.0 mi WNW 13.8 mph - 0.00 in   Partly Cloudy
5:53 PM 71.1 °F 53.1 °F 53% 30.00 in 10.0 mi WNW 16.1 mph - 0.00 in   Scattered Clouds
6:53 PM 69.1 °F 51.1 °F 53% 30.01 in 10.0 mi WNW 15.0 mph - N/A   Mostly Cloudy
7:53 PM 64.9 °F 48.9 °F 56% 30.03 in 10.0 mi NW 18.4 mph - N/A   Mostly Cloudy
8:53 PM 66.0 °F 48.0 °F 52% 30.07 in 10.0 mi North 10.4 mph - N/A   Scattered Clouds
9:53 PM 64.9 °F 50.0 °F 58% 30.07 in 10.0 mi NNW 10.4 mph - N/A   Mostly Cloudy
10:53 PM 63.0 °F 52.0 °F 67% 30.08 in 10.0 mi WNW 8.1 mph - N/A   Overcast
11:53 PM 62.1 °F 51.1 °F 67% 30.07 in 10.0 mi NNW 16.1 mph - N/A   Overcast